Погода в Бакшееве

Россия / Владимирская область     56°26′57″N   38°42′17″E
темп.,
°C
ветер,
м/с
пор.,
м/с
влажн.,
%
обл.,
%
осадки,
мм/ч
давл.,
гПа
погр.,
м
25 октября, пн
пн2500:00−1ссз61082100 0.0 1023788
03:00−1сз498959 0.0 1025530
06:00−3сз389531 0.0 1027305
09:00−2зсз358469 0.0 1028301
12:00+1з3561100 0.0 1028668
15:00+2зюз4760100 0.0 1027710
18:000юз51270100 0.0 1026495
21:00+1юз51376100 0.0 1025526
26 октября, вт
вт2600:000зюз513825 0.0 1024491
03:000зюз5138699 0.0 1023478
06:000зюз413885 0.0 1022417
09:00+1зюз41381100 0.0 1021486
12:00+4зюз51269100 0.0 1021547
15:00+4юз51269100 0.0 1019615
18:00+2юз41377100 0.0 1019456
21:00+2юз51376100 0.0 1019467
27 октября, ср
ср2700:00+1юз41278100 0.0 1019409
03:00+1юз41182100 0.0 1018362
06:00+1юз41184100 0.0 1017356
09:00+2юз41380100 0.0 1016454
12:00+4юз51372100 0.0 1015556
15:00+5юз61473100 0.0 1013691
18:00+4зюз61389100 1.4 1014765
21:00+5з51289100 1.4 1014819
28 октября, чт
чт2800:00+5з51285100 0.1 1015768
03:00+5з5118691 0.1 1016782
06:00+3зюз3109479 0.0 1016306
09:00+4юз3894100 0.0 1016341
12:00+5юз3994100 0.4 1015459
15:00+5юз3996100 0.8 1014458
18:00+6зюз31097100 0.4 1014502
21:00+7зсз41198100 1.5 1014554
29 октября, пт
пт2900:00+7ссз2698100 0.4 1016421
03:00+6ссв3697100 0.4 1019437
06:00+4св3791100 0.0 1022401
09:00+3всв468989 0.0 1025361
12:00+4в3379100 0.0 1027576
15:00+4вюв337545 0.0 1027563
18:00+2вюв368374 0.0 1029197
21:00+2ююв3784100 0.3 1029268